Location: Unspecified
(17.3934°N, 0.0000°E)
Time: 03:11:52
(UTC+00:00)

Altair - All Passes

Search period start: 04 April 2026 00:00
Search period end: 14 April 2026 00:00
Orbit: 1502 x 1682 km, 47.2° (Epoch: 29 March)

Date Brightness Start Highest point End Pass type
(mag) Time Alt. Az. Time Alt. Az. Time Alt. Az.
4 Apr - 00:45:20 10° NW 00:54:11 55° SW 01:03:05 10° SSE night (unlit)
4 Apr - 11:45:08 10° SSE 11:49:10 13° SE 11:53:11 10° ESE daylight
4 Apr - 13:43:24 10° SSW 13:53:28 72° SE 14:03:16 10° NE daylight
4 Apr - 15:50:10 10° W 15:58:40 31° NW 16:06:59 10° NNE daylight
4 Apr - 22:16:03 10° NNW 22:24:09 33° NE 22:32:08 10° E visible
5 Apr - 00:20:01 10° NW 00:29:00 61° SW 00:38:01 10° SSE night (unlit)
5 Apr - 11:21:56 10° SE 11:23:55 11° SE 11:25:55 10° ESE daylight
5 Apr - 13:18:14 10° SSW 13:28:14 65° SE 13:37:58 10° NE daylight
5 Apr - 15:24:30 10° W 15:33:18 34° NW 15:41:54 10° NNE daylight
5 Apr - 17:40:00 10° NNW 17:41:01 10° NNW 17:42:02 10° N daylight
5 Apr - 21:50:58 10° NNW 21:58:49 30° NE 22:06:33 10° E visible
5 Apr - 23:54:43 10° NW 00:03:49 68° SW 00:12:55 10° SSE visible
6 Apr - 02:06:27 10° WSW 02:07:52 10° SW 02:09:17 10° SW night (unlit)
6 Apr - 12:53:06 10° SSW 13:03:00 58° SE 13:12:38 10° NE daylight
6 Apr - 14:58:53 10° WSW 15:07:57 38° NW 15:16:49 10° NNE daylight
6 Apr - 17:12:57 10° NW 17:15:26 11° NNW 17:17:56 10° N daylight
6 Apr - 21:25:53 10° NNW 21:33:28 27° NE 21:40:56 10° E visible
6 Apr - 23:29:26 10° NW 23:38:37 76° SW 23:47:47 10° SE visible
7 Apr - 01:39:07 10° WSW 01:42:40 13° SW 01:46:13 10° SSW night (unlit)
7 Apr - 12:28:00 10° SSW 12:37:45 52° SE 12:47:16 10° NE daylight
7 Apr - 14:33:17 10° WSW 14:42:36 41° NW 14:51:43 10° NNE daylight
7 Apr - 16:46:26 10° NW 16:49:52 12° NNW 16:53:17 10° N daylight
7 Apr - 21:00:49 10° NNW 21:08:06 25° NE 21:15:16 10° E visible
7 Apr - 23:04:10 10° NW 23:13:26 84° SW 23:22:37 10° SE visible
8 Apr - 01:12:45 10° W 01:17:28 15° SW 01:22:12 10° SSW night (unlit)
8 Apr - 12:02:57 10° SSW 12:12:31 47° SE 12:21:52 10° ENE daylight
8 Apr - 14:07:45 10° WSW 14:17:16 46° NW 14:26:35 10° NNE daylight
8 Apr - 16:20:06 10° NW 16:24:19 13° NNW 16:28:30 10° N daylight
8 Apr - 20:35:45 10° NNW 20:42:43 23° NNE 20:49:33 10° E visible
8 Apr - 22:38:56 10° NW 22:48:14 88° NE 22:57:25 10° SE visible
9 Apr - 00:46:42 10° W 00:52:16 18° SW 00:57:53 10° SSW night (unlit)
9 Apr - 11:37:57 10° SSW 11:47:17 42° SE 11:56:27 10° ENE daylight
9 Apr - 13:42:14 10° WSW 13:51:57 50° NW 14:01:27 10° NNE daylight
9 Apr - 15:53:54 10° NW 15:58:47 14° NNW 16:03:37 10° N daylight
9 Apr - 20:10:42 10° NNW 20:17:19 21° NNE 20:23:48 10° ENE visible
9 Apr - 22:13:43 10° NW 22:23:01 80° NE 22:32:11 10° SE visible
10 Apr - 00:20:50 10° W 00:27:06 21° SW 00:33:23 10° S night (unlit)
10 Apr - 11:12:59 10° S 11:22:03 37° SE 11:30:58 10° ENE daylight
10 Apr - 13:16:47 10° WSW 13:26:38 55° NW 13:36:19 10° NNE daylight
10 Apr - 15:27:46 10° WNW 15:33:16 16° NNW 15:38:41 10° N daylight
10 Apr - 19:45:39 10° NNW 19:51:53 19° NNE 19:58:00 10° ENE visible
10 Apr - 21:48:30 10° NW 21:57:48 72° NE 22:06:55 10° SE visible
10 Apr - 23:55:05 10° WNW 00:01:55 24° SW 00:08:46 10° S night (unlit)
11 Apr - 10:48:05 10° S 10:56:48 33° SE 11:05:26 10° ENE daylight
11 Apr - 12:51:21 10° WSW 13:01:20 61° NW 13:11:08 10° NE daylight
11 Apr - 15:01:43 10° WNW 15:07:45 17° NNW 15:13:43 10° N daylight
11 Apr - 19:20:38 10° N 19:26:26 17° NNE 19:32:09 10° ENE visible
11 Apr - 21:23:19 10° NW 21:32:33 66° NE 21:41:38 10° SE visible
11 Apr - 23:29:26 10° WNW 23:36:44 27° SW 23:44:03 10° S visible
12 Apr - 10:23:14 10° S 10:31:35 30° SE 10:39:51 10° ENE daylight
12 Apr - 12:25:58 10° SW 12:36:02 67° NW 12:45:57 10° NE daylight
12 Apr - 14:35:44 10° WNW 14:42:16 19° NNW 14:48:43 10° NNE daylight
12 Apr - 18:55:37 10° N 19:00:59 16° NNE 19:06:14 10° ENE visible
12 Apr - 20:58:07 10° NW 21:07:20 59° NE 21:16:18 10° ESE visible
12 Apr - 23:03:51 10° WNW 23:11:34 31° SW 23:19:17 10° S visible
13 Apr - 09:58:27 10° S 10:06:21 26° SE 10:14:12 10° ENE daylight
13 Apr - 12:00:36 10° SW 12:10:45 74° NW 12:20:45 10° NE daylight
13 Apr - 14:09:48 10° WNW 14:16:47 21° NNW 14:23:42 10° NNE daylight
13 Apr - 18:30:36 10° N 18:35:29 15° NNE 18:40:17 10° NE visible
13 Apr - 20:32:57 10° NNW 20:42:04 53° NE 20:50:57 10° ESE visible
13 Apr - 22:38:19 10° WNW 22:46:24 35° SW 22:54:26 10° S visible
